Location: Newark
(31.5350°N, 35.0986°E)
Time: 20:44:52
(UTC+00:00)

Explorer 7 - Pass Details

Date: 23 October 2019
Orbit: 485 x 680 km, 50.3° (Epoch: 21 November)

Event Time Altitude Azimuth Distance (km) Brightness Sun altitude
Rises 08:37:20 0° 278° (W) 2,566 10.1 45.7°
Reaches altitude 10° 08:40:52 10° 313° (NW) 1,668 9.0 45.9°
Maximum altitude 08:42:13 12° 334° (NNW) 1,571 8.9 46.0°
Drops below altitude 10° 08:43:33 10° 355° (N) 1,664 9.0 46.0°
Sets 08:47:05 0° 30° (NNE) 2,551 9.9 46.2°
